CZ-6A DEB

Satellite information

Favourite Embed

Satellite Type and Status

DEBRISIN ORBIT

Key statistics

Satellite CZ-6A DEB at a glance.

Uptime

1029

Days in orbit

Revolutions

≈ 14.2

Per day

Orbit

SSO

Sun Synchronous Orbit

Inclination

98.8

Latest

Satellite identification and parameters

Extended collection of information and parameters for CZ-6A DEB.

Object identification

Identified? True

Debris? True

Object name: CZ-6A DEB

International designator: 2022-151SG

Object number (NORAD): 54943

Object ID (CCSDS): 54943

Country: PEOPLES REPUBLIC OF CHINA (PRC)

Current information (Y/N): Y

RCS size: SMALL

Orbital parameters

Period: 101.053 minutes

Inclination: 98.812 deg

SMA: 7186.644 km

Apoapsis: 823.994 km

Periapsis: 793.023 km

RAAN: 262.5858 deg

Eccentricy: 0.00215478

Argument of periapsis: 26.6399 deg

Mean anomaly: 333.5882 deg

Mean motion: 14.24995787 rev/day

Mean motion (dot): 0.0000622 rev/day2

B* drag term: 0.0026682425 1/REarth

Two-line elements (TLE)

Creation date: Sept. 4, 2025, 10:13 a.m.

Reference frame: TEME

Reference center: EARTH

Epoch: Sept. 4, 2025, 12:10 a.m. UTC

TLE line 0: 0 CZ-6A DEB

TLE line 1: 1 54943U 22151SG 25247.00728815 .00006220 00000-0 26682-2 0 9993

TLE line 2: 2 54943 98.8120 262.5858 0021548 26.6399 333.5882 14.24995787145059

Live tracking on map

Real-time ground track for satellite CZ-6A DEB.

In-orbit conjunctions

A list of the most updated potential collisions computed for object CZ-6A DEB.

Target Orbit TCA Probability of collision Miss distance Type
CZ-6A DEB LEO 2025-02-03 06:48:47 0.0001576683 611.0 (m) DEBRIS
COSMOS 1275 DEB LEO 2024-12-16 00:09:03 0.0001492914 163.0 (m) DEBRIS

Associated space launch

Chinese satellite reported for atmospheric/ocean/environmental/spatial parameter research purposes, details TBD.

CZ-6A DEB was lifted into orbit during the mission ‘Long March 6A | Yunhai 3’, on board a Long March 6A space rocket.

The launch took place on Nov. 11, 2022, 10:52 p.m. from Launch Complex 9A.

For more information about the launch, click the button.

Launch to space Long March 6A | Yunhai 3
Long March 6A | Yunhai 3

Agency: N/A

Status: Launch Successful

Launch date: Nov. 11, 2022, 10:52 p.m. UTC

Rocket: Long March 6A

Launch pad: Launch Complex 9A

Location: Taiyuan Satellite Launch Center, People's Republic of China

...

Latest news about this satellite

There are no fresh news available about this satellite. Check back as we update our databases every day.


Newsletter sign-up

Weekly statistics, charts and insights to help you stay on top of the space industry.